FW8104 Weather Reports


Display with metric or nautical units.
time (UTC)temp
F
wind
direction
speed
MPH
gust
MPH
rain 1hr
in
rain 24hr
in
rain mn
in
humidity
%
barometer
mb
20260505211859 51 11 9.0 10.0 0.00 0.61 0.61 77 1009.2
20260505211357 51 356 7.0 9.0 0.00 0.61 0.61 77 1009.3
20260505210853 51 22 12.0 17.0 0.00 0.61 0.61 77 1009.3
20260505210350 51 28 15.0 19.0 0.00 0.61 0.61 77 1009.3
20260505205847 51 43 15.0 17.0 0.00 0.61 0.61 77 1009.0
20260505205345 51 17 15.0 19.0 0.00 0.61 0.61 76 1009.3
20260505204842 51 24 11.0 11.0 0.00 0.61 0.61 78 1009.5
20260505204340 51 9 13.0 16.0 0.00 0.61 0.61 78 1009.3
20260505203837 51 22 13.0 15.0 0.00 0.61 0.61 76 1009.2
20260505203333 51 43 13.0 18.0 0.00 0.61 0.61 77 1009.2
20260505202830 52 15 10.0 11.0 0.00 0.61 0.61 77 1009.0
20260505202326 52 18 11.0 17.0 0.00 0.61 0.61 73 1009.2
20260505201823 52 47 11.0 14.0 0.00 0.61 0.61 72 1009.2
20260505201320 53 1 9.0 11.0 0.00 0.61 0.61 72 1009.2
20260505200818 53 47 4.0 4.0 0.00 0.61 0.61 74 1008.9
20260505200315 53 32 16.0 19.0 0.00 0.61 0.61 73 1009.1
20260505195810 53 34 10.0 15.0 0.00 0.61 0.61 74 1009.2
20260505195308 53 33 12.0 14.0 0.00 0.61 0.61 73 1009.0
20260505194805 53 12 16.0 19.0 0.00 0.61 0.61 73 1008.9
20260505194302 53 69 11.0 13.0 0.00 0.61 0.61 74 1009.1
20260505193757 53 26 9.0 11.0 0.00 0.61 0.61 74 1009.0
20260505193255 53 31 15.0 16.0 0.00 0.61 0.61 73 1009.0
20260505192753 53 24 11.0 14.0 0.00 0.61 0.61 74 1008.9
20260505192250 53 308 10.0 17.0 0.00 0.61 0.61 74 1009.2
20260505191748 53 50 14.0 17.0 0.00 0.61 0.61 75 1008.9
20260505191247 53 33 7.0 11.0 0.00 0.61 0.61 75 1008.5
20260505190742 53 33 9.0 10.0 0.00 0.61 0.61 75 1008.9
20260505190237 53 13 14.0 17.0 0.00 0.61 0.61 75 1009.0
20260505185734 53 20 5.0 6.0 0.00 0.61 0.61 78 1008.7
20260505185231 53 67 9.0 11.0 0.00 0.61 0.61 77 1008.4
20260505184727 53 57 6.0 7.0 0.00 0.61 0.61 78 1008.6
20260505184225 52 38 12.0 17.0 0.00 0.61 0.61 78 1008.4
20260505183721 52 36 16.0 23.0 0.00 0.61 0.61 79 1008.6
20260505183219 52 11 16.0 21.0 0.00 0.61 0.61 80 1008.6
20260505182714 53 64 17.0 24.0 0.00 0.61 0.61 81 1008.7
20260505182212 52 40 9.0 14.0 0.00 0.61 0.61 81 1008.7
20260505181708 53 38 18.0 24.0 0.00 0.61 0.61 82 1008.6
20260505181206 53 3 9.0 15.0 0.00 0.61 0.61 83 1008.5
20260505180702 53 355 12.0 14.0 0.00 0.61 0.61 84 1008.7
20260505180159 53 53 15.0 17.0 0.00 0.61 0.61 83 1008.6
20260505175654 53 30 14.0 19.0 0.00 0.61 0.61 82 1008.6
20260505175151 53 27 10.0 11.0 0.00 0.61 0.61 83 1008.5
20260505174648 53 26 7.0 9.0 0.00 0.61 0.61 83 1008.6
20260505174144 53 21 9.0 11.0 0.00 0.61 0.61 83 1008.5
20260505173641 53 47 6.0 10.0 0.00 0.61 0.61 82 1008.4
20260505173138 53 41 10.0 13.0 0.00 0.61 0.61 82 1008.2
20260505172635 53 55 12.0 16.0 0.00 0.61 0.61 83 1008.1
20260505172132 53 35 19.0 23.0 0.00 0.61 0.61 83 1008.0
20260505171631 53 24 11.0 15.0 0.00 0.61 0.61 83 1007.8
20260505171129 53 33 10.0 11.0 0.00 0.61 0.61 84 1007.7
20260505170626 53 63 10.0 11.0 0.00 0.61 0.61 83 1007.9
20260505170122 53 33 9.0 13.0 0.00 0.61 0.61 83 1007.8
20260505165617 53 45 19.0 25.0 0.00 0.61 0.61 82 1007.9
20260505165114 53 88 15.0 19.0 0.00 0.61 0.61 82 1008.0
20260505164609 54 332 14.0 19.0 0.00 0.61 0.61 83 1007.7
20260505164108 54 65 11.0 15.0 0.00 0.61 0.61 84 1007.8
20260505163606 54 31 10.0 13.0 0.00 0.61 0.61 84 1007.8
20260505163102 54 24 17.0 19.0 0.00 0.61 0.61 83 1007.9
20260505162600 54 24 8.0 9.0 0.00 0.61 0.61 84 1008.1
20260505162058 54 28 14.0 21.0 0.00 0.61 0.61 84 1007.9
20260505161554 54 66 14.0 21.0 0.00 0.61 0.61 84 1008.0
20260505161052 55 3 17.0 18.0 0.00 0.61 0.61 85 1007.7
20260505160550 54 49 5.0 7.0 0.00 0.61 0.61 86 1007.7
20260505153026 53 1 8.0 9.0 0.00 0.61 0.61 89 1007.5
20260505152523 53 52 15.0 17.0 0.00 0.61 0.61 89 1007.7
20260505152019 53 66 13.0 18.0 0.00 0.61 0.61 89 1007.5
20260505151514 53 36 15.0 21.0 0.00 0.61 0.61 90 1007.6
20260505151012 53 60 12.0 15.0 0.00 0.61 0.61 90 1007.6
20260505150508 53 27 11.0 13.0 0.00 0.61 0.61 91 1008.1
20260505140433 55 27 9.0 11.0 0.00 0.61 0.61 93 1006.2
20260505124846 56 7 8.0 13.0 0.00 0.61 0.61 94 1006.4
20260505124343 56 35 11.0 14.0 0.00 0.61 0.61 94 1006.1
20260505123839 57 36 10.0 11.0 0.00 0.61 0.61 94 1006.1
20260505123335 57 16 7.0 8.0 0.00 0.61 0.61 94 1005.9
20260505122832 57 64 8.0 8.0 0.00 0.61 0.61 94 1005.7
20260505122329 57 50 4.0 6.0 0.00 0.61 0.61 94 1005.8
20260505121826 57 28 9.0 10.0 0.00 0.61 0.61 94 1005.9
20260505121323 57 6 8.0 9.0 0.00 0.61 0.61 94 1005.7
20260505120819 58 16 7.0 10.0 0.00 0.61 0.61 93 1005.5
20260505120315 58 17 10.0 13.0 0.00 0.61 0.61 93 1005.5
20260505115813 58 49 7.0 8.0 0.00 0.61 0.61 93 1005.0
20260505115311 59 24 4.0 7.0 0.00 0.61 0.61 93 1005.1
20260505114809 59 359 5.0 7.0 0.00 0.61 0.61 94 1005.1
20260505114305 60 28 4.0 4.0 0.00 0.61 0.61 94 1004.8
20260505113756 60 27 4.0 6.0 0.00 0.61 0.61 94 1004.8
20260505113253 59 91 5.0 8.0 0.00 0.61 0.61 97 1004.7
20260505112748 60 39 7.0 9.0 0.00 0.61 0.61 98 1005.0
20260505112247 60 36 7.0 9.0 0.00 0.61 0.61 99 1004.7
20260505111746 60 20 8.0 10.0 0.00 0.61 0.61 99 1004.7
20260505111242 60 359 3.0 4.0 0.00 0.61 0.61 99 1004.4
20260505110738 60 53 5.0 6.0 0.00 0.61 0.61 99 1004.4
20260505110236 60 330 6.0 7.0 0.00 0.61 0.61 99 1004.4
20260505102212 61 24 4.0 4.0 0.00 0.61 0.61 99 1004.7
20260505101711 61 134 1.0 2.0 0.00 0.61 0.61 99 1004.7
20260505101206 61 25 2.0 3.0 0.00 0.61 0.61 99 1004.5
20260505100702 61 114 1.0 2.0 0.00 0.61 0.61 99 1004.7
20260505100159 61 61 4.0 4.0 0.00 0.61 0.61 99 1004.6
20260505095655 61 5 4.0 4.0 0.00 0.61 0.61 99 1004.7
20260505095153 61 351 2.0 3.0 0.00 0.61 0.61 98 1004.6
20260505094649 61 24 6.0 8.0 0.07 0.61 0.61 98 1004.9
20260505094145 60 147 2.0 3.0 0.24 0.61 0.61 98 1004.5
20260505093642 60 161 2.0 3.0 0.52 0.60 0.60 98 1004.2
20260505093139 61 145 10.0 10.0 0.40 0.58 0.58 98 1004.0
20260505092636 61 160 4.0 6.0 0.07 0.51 0.51 96 1003.9
20260505092135 61 164 7.0 9.0 0.14 0.51 0.51 96 1003.8
20260505091631 62 158 9.0 10.0 0.07 0.50 0.50 97 1003.7
20260505091129 62 169 4.0 7.0 0.00 0.49 0.49 97 1004.1
20260505090626 62 163 4.0 4.0 0.12 0.49 0.49 98 1003.6
20260505090124 61 173 7.0 8.0 0.28 0.49 0.49 98 1003.5
20260505085621 61 166 5.0 7.0 0.17 0.47 0.47 98 1004.0
20260505085120 61 193 6.0 9.0 0.19 0.44 0.44 98 1003.7
20260505084617 61 202 4.0 7.0 0.35 0.44 0.44 98 1003.6
20260505084115 61 151 4.0 7.0 0.38 0.42 0.42 98 1003.6
20260505083613 61 184 1.0 2.0 0.19 0.39 0.39 98 1004.4
20260505083109 61 214 2.0 3.0 0.00 0.36 0.36 98 1004.6
20260505082605 61 209 2.0 2.0 0.00 0.36 0.36 98 1004.5
20260505082102 61 183 3.0 4.0 0.24 0.36 0.36 98 1004.3
20260505081558 61 163 4.0 6.0 0.24 0.36 0.36 98 1004.1
20260505081055 61 169 11.0 13.0 0.05 0.32 0.32 97 1003.7
20260505080551 62 185 8.0 10.0 0.05 0.32 0.32 97 1003.4
20260505080049 61 205 8.0 9.0 0.00 0.31 0.31 98 1003.5
20260505075544 61 166 6.0 10.0 0.07 0.31 0.31 98 1003.3
20260505075041 61 216 6.0 8.0 0.07 0.31 0.31 98 1003.2
20260505074538 61 158 8.0 9.0 0.00 0.30 0.30 99 1003.1
20260505074036 61 191 10.0 11.0 0.00 0.30 0.30 99 1003.6
20260505073533 61 151 6.0 7.0 0.00 0.30 0.30 99 1003.7
20260505073032 61 134 15.0 18.0 0.00 0.30 0.30 99 1003.8
20260505072526 61 172 9.0 14.0 0.00 0.30 0.30 99 1004.1
20260505072023 62 140 14.0 17.0 0.00 0.30 0.30 99 1004.2
20260505071518 62 115 6.0 8.0 0.00 0.30 0.30 99 1004.6
20260505071017 62 189 8.0 9.0 0.05 0.30 0.30 99 1005.4
20260505070514 62 167 7.0 8.0 0.05 0.30 0.30 99 1005.0
20260505070010 62 200 4.0 4.0 0.07 0.29 0.29 99 1005.4
20260505065506 62 136 3.0 4.0 0.12 0.29 0.29 99 1006.1
20260505065002 62 168 9.0 10.0 0.12 0.28 0.28 98 1006.1
20260505064459 62 173 3.0 4.0 0.12 0.27 0.27 98 1006.7
20260505063958 62 200 1.0 1.0 0.12 0.26 0.26 98 1006.9
20260505063454 62 177 2.0 2.0 0.14 0.25 0.25 98 1006.7
20260505062950 62 188 2.0 2.0 0.24 0.24 0.24 97 1006.7
20260505062448 62 196 4.0 4.0 0.40 0.23 0.23 97 1007.2
20260505061944 62 205 1.0 2.0 0.42 0.20 0.20 96 1007.2
20260505061443 63 202 3.0 6.0 0.35 0.17 0.17 95 1007.3
20260505060940 63 218 6.0 9.0 0.38 0.14 0.14 94 1007.2
20260505060437 63 266 2.0 3.0 0.28 0.10 0.10 93 1006.4
20260505055933 63 214 2.0 3.0 0.24 0.08 0.08 92 1006.5
20260505055429 64 231 3.0 4.0 0.24 0.06 0.06 91 1006.2
20260505054926 65 226 6.0 7.0 0.17 0.04 0.04 87 1005.7
20260505054423 65 257 5.0 7.0 0.12 0.02 0.02 85 1005.5
20260505053921 66 194 1.0 2.0 0.07 0.01 0.01 82 1005.4
20260505053418 67 236 2.0 3.0 0.00 0.00 0.00 78 1005.2
20260505052915 68 212 3.0 3.0 0.00 0.00 0.00 75 1004.8
20260505052412 69 176 2.0 2.0 0.00 0.00 0.00 74 1004.3
20260505051909 69 177 6.0 6.0 0.00 0.00 0.00 73 1004.3
20260505051406 69 217 4.0 4.0 0.00 0.00 0.00 71 1004.4
20260505050904 69 187 3.0 4.0 0.00 0.00 0.00 71 1004.4
20260505050402 69 155 7.0 9.0 0.00 0.00 0.00 70 1004.3
20260505041330 69 175 6.0 8.0 0.00 0.00 0.00 70 1004.6
20260505040827 69 166 4.0 4.0 0.00 0.00 0.00 69 1004.3
20260505040324 69 174 5.0 6.0 0.00 0.00 0.00 69 1004.2
20260505035821 69 186 6.0 7.0 0.00 0.00 0.00 69 1004.3
20260505035317 70 226 9.0 10.0 0.00 0.00 0.00 68 1004.3
20260505034814 70 187 3.0 4.0 0.00 0.00 0.00 68 1004.5
20260505034311 70 164 7.0 9.0 0.00 0.00 0.00 68 1004.7
20260505033808 70 160 4.0 6.0 0.00 0.00 0.00 68 1004.8
20260505033305 70 161 5.0 7.0 0.00 0.00 0.00 68 1005.0
20260505032803 70 159 6.0 8.0 0.00 0.00 0.00 68 1004.8
20260505032259 70 159 7.0 8.0 0.00 0.00 0.00 68 1004.6
20260505031757 70 207 6.0 7.0 0.00 0.00 0.00 67 1005.0
20260505031253 71 181 7.0 9.0 0.00 0.00 0.00 67 1004.7
20260505030750 70 143 5.0 7.0 0.00 0.00 0.00 67 1004.8
20260505030246 71 165 8.0 10.0 0.00 0.00 0.00 66 1004.6
20260505025741 71 176 6.0 8.0 0.00 0.00 0.00 66 1004.9
20260505025240 71 163 9.0 9.0 0.00 0.00 0.00 66 1004.9
20260505024738 71 161 7.0 8.0 0.00 0.00 0.00 66 1004.8
20260505024235 71 194 8.0 11.0 0.00 0.00 0.00 66 1004.8
20260505023732 71 187 8.0 8.0 0.00 0.00 0.00 66 1004.4
20260505023229 71 167 10.0 13.0 0.00 0.00 0.00 66 1004.6
20260505022726 71 193 9.0 10.0 0.00 0.00 0.00 65 1004.6
20260505022223 71 166 11.0 11.0 0.00 0.00 0.00 65 1004.5
20260505021720 71 176 9.0 10.0 0.00 0.00 0.00 66 1004.5
20260505021217 71 171 4.0 6.0 0.00 0.00 0.00 66 1004.4
20260505020712 71 178 5.0 6.0 0.00 0.00 0.00 65 1004.6
20260505020208 72 171 5.0 6.0 0.00 0.00 0.00 65 1004.2
20260505015706 72 191 6.0 7.0 0.00 0.00 0.00 64 1004.2
20260505015202 72 181 7.0 10.0 0.00 0.00 0.00 64 1004.3
20260505014659 72 165 6.0 9.0 0.00 0.00 0.00 64 1004.1
20260505014156 73 159 6.0 9.0 0.00 0.00 0.00 63 1004.2
20260505013654 73 170 5.0 7.0 0.00 0.00 0.00 63 1004.1
20260505013151 73 192 6.0 7.0 0.00 0.00 0.00 63 1004.1
20260505012649 73 194 3.0 6.0 0.00 0.00 0.00 63 1004.1
20260505012146 73 139 8.0 10.0 0.00 0.00 0.00 63 1004.3
20260505011641 73 162 2.0 3.0 0.00 0.00 0.00 63 1004.2
20260505011139 73 195 3.0 4.0 0.00 0.00 0.00 63 1003.9
20260505010639 73 210 6.0 7.0 0.00 0.00 0.00 63 1004.1
20260505010136 73 210 5.0 9.0 0.00 0.00 0.00 63 1004.2
20260505005632 73 179 8.0 9.0 0.00 0.00 0.00 63 1004.2
20260505005129 73 193 4.0 6.0 0.00 0.00 0.00 63 1004.3
20260505004627 74 180 4.0 6.0 0.00 0.00 0.00 62 1004.2
20260505004123 74 218 5.0 6.0 0.00 0.00 0.00 62 1004.2
20260505003620 74 185 2.0 3.0 0.00 0.00 0.00 62 1004.2
20260505003118 74 222 5.0 6.0 0.00 0.00 0.00 61 1004.3
20260505002614 74 215 4.0 6.0 0.00 0.00 0.00 61 1004.1
20260505002107 75 189 5.0 6.0 0.00 0.00 0.00 60 1004.2
20260505001603 75 190 8.0 10.0 0.00 0.00 0.00 58 1004.1
20260505001100 75 215 8.0 9.0 0.00 0.00 0.00 58 1004.3
20260505000552 75 221 8.0 9.0 0.00 0.00 0.00 58 1004.2
20260505000050 75 231 8.0 14.0 0.00 0.00 0.00 58 1004.1
20260504235546 76 176 9.0 11.0 0.00 0.00 0.00 58 1003.9
20260504235043 76 224 6.0 8.0 0.00 0.00 0.00 59 1004.0
20260504234540 76 204 10.0 15.0 0.00 0.00 0.00 58 1003.9
20260504234037 77 226 9.0 11.0 0.00 0.00 0.00 57 1003.7
20260504233532 77 235 6.0 7.0 0.00 0.00 0.00 57 1003.8
20260504233029 77 195 11.0 15.0 0.00 0.00 0.00 55 1003.9
20260504232526 77 194 11.0 14.0 0.00 0.00 0.00 55 1004.1
20260504232024 77 209 11.0 15.0 0.00 0.00 0.00 55 1003.9
20260504231521 77 197 6.0 8.0 0.00 0.00 0.00 56 1003.8
20260504231017 77 241 6.0 7.0 0.00 0.00 0.00 55 1004.0
20260504230513 77 200 8.0 10.0 0.00 0.00 0.00 55 1004.0
20260504230012 78 237 7.0 8.0 0.00 0.00 0.00 55 1003.9
20260504225509 78 221 12.0 16.0 0.00 0.00 0.00 55 1003.9
20260504225006 78 243 13.0 15.0 0.00 0.00 0.00 54 1003.8
20260504224503 79 195 6.0 10.0 0.00 0.00 0.00 55 1003.6
20260504224000 79 182 7.0 9.0 0.00 0.00 0.00 54 1003.6
20260504223456 79 153 6.0 8.0 0.00 0.00 0.00 55 1003.6
20260504222951 80 186 8.0 11.0 0.00 0.00 0.00 54 1003.4
20260504222449 80 177 4.0 8.0 0.00 0.00 0.00 54 1003.4
20260504221947 80 232 9.0 10.0 0.00 0.00 0.00 53 1003.4
20260504221444 80 196 11.0 15.0 0.00 0.00 0.00 52 1003.4
20260504220941 80 185 5.0 7.0 0.00 0.00 0.00 53 1003.5
20260504220437 80 242 10.0 11.0 0.00 0.00 0.00 53 1003.6
20260504215934 80 203 13.0 19.0 0.00 0.00 0.00 52 1003.8
20260504215431 80 196 14.0 17.0 0.00 0.00 0.00 52 1003.5
20260504214927 80 227 10.0 11.0 0.00 0.00 0.00 52 1003.6
20260504214424 79 143 8.0 9.0 0.00 0.00 0.00 52 1003.5
20260504213920 80 274 5.0 8.0 0.00 0.00 0.00 53 1003.8
20260504213416 80 202 15.0 19.0 0.00 0.00 0.00 53 1003.7
20260504212914 80 220 9.0 10.0 0.00 0.00 0.00 53 1003.9
20260504212415 80 226 8.0 10.0 0.00 0.00 0.00 52 1003.8